Location: Espinouse
(44.0031°N, 6.1097°E)
Time: 10:27:42
(UTC+00:00)

Daily predictions for brighter satellites

Satellite Brightness Start Highest point End
(mag) Time Altitude Azimuth Time Altitude Azimuth Time Altitude Azimuth
Cosmos 1825 Rocket 4.2 17:00:21 10° SSE 17:04:14 33° E 17:08:07 10° NNE
Cosmos 494 Rocket 4.0 16:59:50 10° NNW 17:04:59 85° ENE 17:10:07 10° SSE
ATLAS CENTAUR R/B 4.2 17:00:08 10° W 17:05:20 49° NNW 17:19:13 10° NE
Cosmos 2237 Rocket 2.2 17:00:19 10° NNW 17:05:58 68° ENE 17:11:33 10° SE
SMAP 3.2 17:01:23 10° SSE 17:06:02 85° WSW 17:10:44 10° NNW
Nadezhda 3 Rocket 4.1 17:00:46 10° N 17:07:07 83° E 17:13:28 10° S
Okean-O 2.9 17:03:09 10° SE 17:07:23 47° ENE 17:11:40 10° N
PSLV R/B 4.2 17:04:05 10° N 17:08:09 73° WNW 17:12:15 10° SSW
ATLAS 5 CENTAUR R/B 4.0 17:08:40 10° WNW 17:11:12 15° NNW 17:13:54 10° N
Shenzhou-11 Module 2.7 17:12:13 10° SW 17:14:45 37° SSE 17:17:16 10° E
Cosmos 2333 Rocket 4.1 17:11:22 10° NW 17:16:34 36° WSW 17:21:40 10° S
Cosmos 1455 3.1 17:13:59 10° NNE 17:17:17 27° ENE 17:20:34 10° SE
CZ-4C R/B 3.7 17:11:55 10° NW 17:19:10 63° WSW 17:27:20 10° SSE
Atlas Centaur 2 4.1 17:18:16 10° S 17:19:34 11° SSE 17:20:57 10° SE
ATLAS 5 CENTAUR R/B 4.4 17:17:13 10° N 17:20:41 20° NE 17:28:13 10° E
CORIOLIS 4.5 17:18:25 10° S 17:23:46 74° WSW 17:29:09 10° NNW
SL-8 Rocket 4.2 17:18:20 10° SSE 17:24:20 49° E 17:30:21 10° NNE
USA 234 3.4 17:19:12 10° SE 17:25:45 85° SW 17:32:20 10° NW
Cosmos 2221 4.4 17:24:35 10° NE 17:25:05 11° NE 17:25:05 11° NE
SKYMED 2 3.8 17:22:45 10° NNE 17:26:58 48° E 17:31:10 10° S
ISS -3.8 17:23:53 10° SW 17:27:15 82° SSE 17:30:01 15° ENE
SL-16 R/B 2.6 17:24:18 10° NNW 17:29:41 42° ENE 17:35:01 10° SE
ATLAS CENTAUR R/B 2.7 17:27:13 10° N 17:30:18 20° NE 17:32:07 15° ENE
CZ-4 R/B 1.8 17:26:56 10° SE 17:30:46 42° ENE 17:34:43 10° N
Cosmos-2242 3.0 17:28:57 10° N 17:33:13 58° E 17:37:25 10° SSE
Cosmos 2219 3.5 17:30:20 10° SW 17:35:55 67° WNW 17:41:34 10° NNE
Cosmos 2341 Rocket 4.0 17:30:18 10° S 17:36:40 83° E 17:43:03 10° N
Cosmos 2082 3.9 17:31:32 10° S 17:36:54 50° ESE 17:42:20 10° NE
YAOGAN 1 2.8 17:38:43 10° SE 17:42:50 46° ENE 17:47:00 10° N
Cosmos 2297 Rocket 2.3 17:39:02 10° SSW 17:44:42 81° WNW 17:50:24 10° NNE
Iridium 96 3.3 17:43:17 10° N 17:45:40 79° E 17:48:10 10° S
H-2A ROCKET BODY 4.2 17:39:11 10° WSW 17:47:25 20° SSW 17:51:01 10° SSE
H-2A R/B 3.8 17:49:40 13° NE 17:49:40 13° NE 17:51:03 10° NNE
Cosmos 1328 3.9 17:46:08 10° S 17:50:03 55° E 17:53:59 10° NNE
Meteor 1-21 Rocket 4.4 17:44:42 10° SSW 17:50:17 78° W 17:56:03 10° N
Cosmos 2251 Rocket 3.7 17:45:38 10° N 17:50:47 49° ENE 17:55:56 10° SE
ADEOS Rocket 3.9 17:47:03 10° NNE 17:53:11 35° E 17:59:48 10° SSE
Cosmos 1356 Rocket 3.9 17:51:45 10° N 17:55:31 36° ENE 17:59:18 10° SE
Meteor 2-10 Rocket 3.4 17:50:12 10° N 17:55:31 78° E 18:00:36 10° SSE
Cosmos 2263 Rocket 4.0 17:53:48 10° SE 17:54:46 12° ESE 17:54:46 12° ESE
ERBS 4.0 17:53:57 10° W 17:56:47 25° NNW 17:58:46 15° NNE
SL-8 R/B 3.7 17:52:16 10° WSW 17:57:06 85° NNW 17:59:55 25° ENE
CZ-4 R/B 4.4 17:53:00 10° SSE 17:57:08 85° WSW 18:01:17 10° NNW
Cosmos 2227 Rocket 2.5 17:51:56 10° SSW 17:57:34 71° WNW 18:03:15 10° NNE
NOAA 11 4.1 17:53:49 10° SSE 17:59:15 64° ENE 18:04:41 10° N
Cosmos 864 Rocket 4.4 17:55:45 10° S 18:01:49 72° E 18:07:56 10° NNE
Cosmos 1339 Rocket 4.4 17:56:11 10° N 18:02:19 84° E 18:08:28 10° S
Cosmos 2218 Rocket 4.0 17:57:13 10° S 18:03:33 81° E 18:09:59 10° N
Cosmos 1953 Rocket 4.0 18:09:06 10° SSW 18:13:33 65° W 18:18:02 10° N
Cosmos 1943 4.3 18:10:23 10° N 18:14:37 24° NE 18:14:37 24° NE
COSMO-SKYMED 1 3.4 18:10:50 10° N 18:15:04 51° WNW 18:19:16 10° SSW
DELTA 2 R/B (1) 4.1 18:10:28 10° W 18:15:54 54° S 18:18:55 25° ESE
Cosmos 1842 Rocket 3.7 18:14:31 10° N 18:18:54 51° ENE 18:23:16 10° SSE
SWAS 4.4 18:16:03 10° SSW 18:20:20 65° ESE 18:21:41 41° NE
Cosmos 1703 3.8 18:20:03 10° SSW 18:23:57 60° W 18:27:55 10° N
Cosmos 44 3.8 18:20:15 10° SW 18:24:42 51° NW 18:27:21 22° NNE
CSL-04 Debris 4.4 18:22:35 10° S 18:27:56 71° WSW 18:33:22 10° NNW
Cosmos 1939 Rocket 3.0 18:26:07 10° S 18:30:00 71° W 18:34:00 10° NNW
USA 267 4.3 18:30:18 19° NE 18:34:05 34° NNW 18:39:51 10° WNW
Cosmos 2366 rocket 4.4 18:28:39 10° SSW 18:34:48 63° W 18:41:04 10° N
BREEZE-M DEB (TANK) 3.6 18:33:34 10° W 18:35:08 34° NW 18:35:08 34° NW
Meteor 2-12 Rocket 4.3 18:31:33 10° S 18:37:36 80° E 18:43:40 10° N
BREEZE-M DEB (TANK) 4.3 18:24:44 10° W 18:41:28 58° N 18:43:09 42° NE
Ariane Rocket 2.9 18:49:25 10° SSE 18:54:29 89° WSW 18:59:36 10° NNW
Cosmos 44 Rocket 3.7 18:53:19 10° SSW 18:56:57 49° S 18:56:57 49° S
Cosmos 2221 3.9 18:59:50 10° NNW 19:02:03 30° NNW 19:02:03 30° NNW
ISS -1.3 19:01:25 10° WNW 19:02:59 20° NW 19:02:59 20° NW
CZ-4 R/B 4.4 19:03:22 10° SW 19:06:01 17° W 19:08:43 10° NW
Atlas Centaur 2 3.8 19:03:49 10° SW 19:07:11 19° S 19:07:11 19° S
ATLAS CENTAUR R/B 2.7 19:05:41 10° NW 19:08:23 35° WNW 19:08:23 35° WNW
SL-16 R/B 3.9 19:08:43 10° NW 19:13:38 31° WSW 19:18:31 10° SSW
Cosmos 2227 4.4 19:09:24 10° SSW 19:14:12 63° S 19:14:12 63° S
Cosmos 1603 4.2 19:20:58 10° NNW 19:25:18 54° NNW 19:25:18 54° NNW
H-2A R/B 3.8 19:30:16 23° NNW 19:30:16 23° NNW 19:32:10 10° NNW
USA 238 DEB 4.2 19:24:10 10° SSW 19:28:45 46° S 19:28:45 46° S
USA 238 4.2 19:24:17 10° SSW 19:28:48 45° S 19:28:48 45° S
ADEOS Rocket 4.1 19:32:23 10° N 19:38:45 48° WNW 19:45:41 10° SW
Cosmos 2263 Rocket 3.7 19:34:05 10° SSW 19:36:32 27° SSW 19:36:32 27° SSW
BREEZE-M DEB (TANK) 4.4 19:43:52 10° WNW 20:05:42 81° WNW 20:05:42 81° WNW
